User: anonymous   Login
Location: Unspecified
(0.0000°N, 0.0000°E)
Time: 17:04:57
(UTC+00:00)
Language:

M-CUBED/EXP-1 PRIME - Orbit

View from above orbital plane
View from above orbital plane
View from above satellite
View from above satellite

Ground track
Ground track

The orbit data is extracted from the following two-line orbital elements,

1 37855U 11061F   17265.10838825  .00000939  00000-0  56839-4 0  9999
2 37855 101.7061 185.7511 0179808 155.0511 205.9525 15.03367981321350
Epoch (UTC): 22 September 2017 02:36:04
Eccentricity: 0.0179808
inclination: 101.7061°
perigee height: 432 km
apogee height: 681 km
right ascension of ascending node: 185.7511°
argument of perigee: 155.0511°
revolutions per day: 15.03367981
mean anomaly at epoch: 205.9525°
orbit number at epoch: 32135

The dashed part of the orbit path shows where the satellite is in the earth's shadow,  

DLR